Location: Mahannah Oil Field
(37.4664°N, 96.6003°W)
Time: 21:16:47
(UTC+00:00)

Hubble Space Telescope - Visible Passes

Search period start: 30 November 2020 00:00
Search period end: 10 December 2020 00:00
Orbit: 536 x 540 km, 28.5° (Epoch: 30 November)

Date Brightness Start Highest point End Pass type
(mag) Time Alt. Az. Time Alt. Az. Time Alt. Az.
01 Dec 3.2 00:57:07 10° S 00:58:28 11° SSE 00:58:30 11° SSE visible
02 Dec 3.0 00:45:30 10° SSW 00:47:33 13° SSE 00:48:23 13° SSE visible
03 Dec 2.9 00:34:11 10° SSW 00:36:39 15° SSE 00:38:14 13° SE visible
04 Dec 2.9 00:23:00 10° SSW 00:25:45 17° SSE 00:28:04 12° SE visible
04 Dec 3.8 02:03:05 10° SW 02:03:24 12° SW 02:03:24 12° SW visible
05 Dec 2.8 00:11:54 10° SW 00:14:52 19° S 00:17:50 10° ESE visible
05 Dec 3.5 01:52:13 10° SW 01:53:15 15° SW 01:53:15 15° SW visible
06 Dec 2.8 00:00:52 10° SW 00:03:59 21° S 00:07:06 10° ESE visible
06 Dec 3.2 01:41:24 10° WSW 01:43:07 18° SW 01:43:07 18° SW visible
06 Dec 2.7 23:49:53 10° SW 23:53:06 22° S 23:56:19 10° ESE visible
07 Dec 2.9 01:30:36 10° WSW 01:33:01 20° SSW 01:33:01 20° SSW visible
07 Dec 2.7 23:38:56 10° SW 23:42:13 23° S 23:45:30 10° SE visible
08 Dec 2.8 01:19:52 10° WSW 01:22:51 19° S 01:22:58 19° S visible
09 Dec 3.0 01:09:10 10° SW 01:11:57 17° SSW 01:13:00 16° S visible
